Weather History for Flint, MI

Change the Weather History Date:

Friday, March 1, 2013

  Actual Average Record
Temperature  
Mean Temperature 27 °F 28 °F  
Max Temperature 29 °F 37 °F 60 °F (1992)
Min Temperature 24 °F 20 °F -11 °F (1967)
Degree Days  
Heating Degree Days 38 36  
Month to date heating degree days 38 36  
Since 1 July heating degree days 4691 5124  
Cooling Degree Days 0 0  
Month to date cooling degree days 0 0  
Year to date cooling degree days 0 0  
Moisture  
Dew Point 19 °F    
Average Humidity 75    
Maximum Humidity 81    
Minimum Humidity 68    
Precipitation  
Precipitation T in 0.06 in 0.37 in (2007)
Month to date precipitation T 0.06  
Year to date precipitation 5.46 3.17  
Snow  
Snow T in 0.30 in 2.80 in (1999)
Month to date snowfall T 0.3  
Since 1 July snowfall 38.3 38.9  
Snow Depth 2.00 in    
Sea Level Pressure  
Sea Level Pressure 30.09 in    
Wind  
Wind Speed 12 mph (North)    
Max Wind Speed 20 mph    
Max Gust Speed 24 mph    
Visibility 10 miles    
Events Snow    
T = Trace of Precipitation, MM = Missing Value Source: NWS Daily Summary

Daily Weather History Graph

Daily Weather History Graph

Search for Another Location

Airport:

Trip Planner

Search our weather history database for the weather conditions in past years. The results will help you decide how hot, cold, wet, or windy it might be!

Date:

Astronomy

Mar. 01, 2013 Rise Set
Actual Time 7:10 AM EST 6:24 PM EST
Civil Twilight 6:42 AM EST 6:53 PM EST
Nautical Twilight 6:09 AM EST 7:25 PM EST
Astronomical Twilight 5:36 AM EST 7:58 PM EST
Moon 11:05 PM EST (3/1) 8:49 AM EST (3/1)
Length of Visible Light 12h 11m
Length of Day
11h 14m
Waning Gibbous, 83% of the Moon is Illuminated
Mar 1
Waning Gibbous
Mar 4
Last Quarter
Mar 11
New
Mar 19
First Quarter
Mar 27
Full

Hourly Weather History & Observations

Time (EST) Temp. Windchill Dew Point Humidity Pressure Visibility Wind Dir Wind Speed Gust Speed Precip Events Conditions
12:53 AM 28.9 °F 19.8 °F 21.9 °F 75% 30.00 in 10.0 mi North 10.4 mph 18.4 mph N/A   Overcast
1:53 AM 28.9 °F 19.2 °F 21.9 °F 75% 30.01 in 10.0 mi North 11.5 mph - N/A   Overcast
2:53 AM 28.4 °F 18.0 °F 21.2 °F 74% 29.98 in 10.0 mi North 12.7 mph - N/A   Overcast
3:53 AM 28.0 °F 18.1 °F 21.0 °F 75% 30.02 in 10.0 mi North 11.5 mph - N/A   Overcast
4:53 AM 27.0 °F 15.2 °F 19.9 °F 75% 30.03 in 10.0 mi NNE 15.0 mph - N/A   Overcast
5:53 AM 26.1 °F 14.0 °F 18.0 °F 71% 30.05 in 10.0 mi North 15.0 mph - N/A   Overcast
6:53 AM 25.0 °F 11.7 °F 19.0 °F 78% 30.06 in 10.0 mi North 17.3 mph - N/A   Overcast
7:53 AM 25.0 °F 13.6 °F 18.0 °F 75% 30.08 in 6.0 mi North 12.7 mph 19.6 mph 0.00 in Snow Light Snow
8:53 AM 24.1 °F 14.4 °F 18.0 °F 77% 30.10 in 9.0 mi North 9.2 mph 18.4 mph 0.00 in   Overcast
9:53 AM 24.1 °F 13.7 °F 18.0 °F 77% 30.11 in 9.0 mi North 10.4 mph - 0.00 in   Overcast
10:53 AM 25.0 °F 13.1 °F 17.1 °F 72% 30.12 in 10.0 mi North 13.8 mph - N/A   Overcast
11:53 AM 25.0 °F 12.6 °F 18.0 °F 75% 30.12 in 10.0 mi North 15.0 mph 19.6 mph N/A   Overcast
12:53 PM 25.0 °F 14.8 °F 18.0 °F 75% 30.12 in 10.0 mi North 10.4 mph - N/A   Overcast
1:53 PM 25.0 °F 12.6 °F 18.0 °F 75% 30.11 in 10.0 mi North 15.0 mph 19.6 mph N/A   Overcast
2:53 PM 26.1 °F 14.5 °F 18.0 °F 71% 30.10 in 10.0 mi NNE 13.8 mph - N/A   Overcast
3:53 PM 26.1 °F 16.2 °F 18.0 °F 71% 30.10 in 10.0 mi North 10.4 mph - N/A   Overcast
4:53 PM 26.1 °F 15.6 °F 17.1 °F 69% 30.11 in 10.0 mi North 11.5 mph - N/A   Overcast
5:53 PM 26.1 °F 18.4 °F 18.0 °F 71% 30.12 in 10.0 mi North 6.9 mph - N/A   Overcast
6:53 PM 26.1 °F 16.8 °F 19.0 °F 75% 30.13 in 10.0 mi NNW 9.2 mph - N/A   Overcast
7:53 PM 26.1 °F 16.8 °F 19.0 °F 75% 30.13 in 10.0 mi NNE 9.2 mph - N/A   Overcast
8:53 PM 26.6 °F 16.2 °F 19.4 °F 74% 30.10 in 10.0 mi NNE 11.5 mph - N/A   Overcast
9:53 PM 26.1 °F 16.8 °F 19.0 °F 75% 30.15 in 10.0 mi NNE 9.2 mph - N/A   Overcast
10:53 PM 25.0 °F 17.1 °F 18.0 °F 75% 30.14 in 10.0 mi North 6.9 mph - N/A   Overcast
11:53 PM 25.0 °F 16.3 °F 17.1 °F 72% 30.12 in 10.0 mi NNW 8.1 mph - N/A   Overcast